[[{"header":{"parameterUnit":"m.s-1","parameterCategory":1,"la1":30.2991,"la2":30.254,"lo1":-89.0895,"lo2":-89.0444,"dy":0.0017,"dx":0.0017,"nx":28,"ny":28,"refTime":"2026-02-07T03:00:00:Z","depth":0,"parameterNumber":2,"parameterNumberName":"U-component_of_WINDS"},"data":[0,0,0,0,0,0,0,0,0,0,0,0,0,0,0,0,0,0,0,0,0,0,0,0,0,0,0,0,0,0,0,0,0,0,0,0,0,0,0,0,0,0,0,0,0,0,0,0,0,0,0,0,0,0,0,0,0,0,-1.4686,-1.4686,0,-1.4661,-1.4661,-1.466,-1.4593,-1.4592,-1.459,-1.4589,-1.4566,-1.4566,-1.4567,0,0,0,0,0,0,0,0,0,0,0,0,0,-1.4678,-1.4678,-1.4686,-1.4686,-1.4685,-1.4661,-1.4661,-1.466,-1.4594,-1.4592,-1.459,-1.4588,-1.4566,-1.4566,-1.4567,0,0,0,0,0,0,0,0,0,0,0,0,0,-1.467,-1.4679,-1.4686,-1.4649,-1.4645,-1.4661,-1.4661,-1.466,-1.4594,-1.4592,-1.459,-1.4588,-1.4565,-1.4566,-1.4567,-1.4618,0,0,-1.4571,-1.4571,0,0,0,0,0,0,0,0,-1.4671,-1.4671,-1.4655,-1.4652,-1.4648,-1.4628,-1.4649,-1.4646,-1.4595,-1.4614,-1.4589,-1.4587,-1.4588,-1.4587,-1.4588,-1.4616,-1.4615,-1.4571,-1.4571,-1.4572,-1.4572,0,0,0,0,0,0,0,-1.4671,-1.4671,-1.4676,-1.4655,-1.465,-1.4634,-1.4631,-1.4648,-1.4614,-1.4612,-1.4607,-1.4605,-1.4586,-1.4587,-1.4587,-1.4615,-1.4571,-1.4572,-1.4572,-1.4573,-1.4683,-1.4686,0,0,0,0,0,0,-1.4677,-1.4672,-1.4677,-1.4675,-1.4654,-1.4636,-1.4632,-1.4637,-1.4613,-1.4607,-1.4607,-1.4602,-1.4586,-1.4585,-1.4585,-1.4641,-1.4572,-1.4573,-1.4574,-1.4681,-1.4684,-1.4686,0,0,0,0,0,0,-1.4677,-1.4678,-1.4678,-1.4672,-1.4671,-1.4639,-1.4644,-1.4637,-1.4638,-1.4609,-1.4603,-1.4613,-1.4584,-1.4584,-1.461,-1.464,-1.4573,-1.4574,-1.4678,-1.4682,-1.4685,-1.4755,0,0,0,0,0,0,-1.4677,-1.4678,-1.4696,-1.4673,-1.4672,-1.4702,-1.4646,-1.4638,-1.4639,-1.4633,-1.4614,-1.4609,-1.4582,-1.4609,-1.4611,-1.464,-1.4575,-1.4676,-1.468,-1.4684,-1.475,-1.476,-1.4769,0,0,0,0,0,-1.4677,-1.4718,-1.4698,-1.4699,-1.4693,-1.4704,-1.4703,-1.4671,-1.4642,-1.466,-1.4642,-1.4609,-1.4637,-1.4612,-1.4614,-1.4644,-1.4674,-1.4679,-1.4684,-1.4745,-1.4758,-1.4769,0,0,0,0,0,0,-1.4745,-1.4714,-1.4691,-1.4725,-1.4718,-1.4692,-1.4714,-1.4686,-1.4687,-1.4681,-1.4642,-1.4639,-1.467,-1.466,-1.4632,-1.4691,-1.465,-1.4656,-1.4696,-1.4708,-1.4717,-1.4718,-1.4576,0,0,0,0,0,-1.4765,-1.4775,-1.4747,-1.478,-1.4777,-1.4747,-1.475,-1.4726,-1.4717,-1.4714,-1.4697,-1.469,-1.4697,-1.4702,-1.4707,-1.4749,-1.4743,-1.4771,-1.4781,-1.4789,-1.4793,-1.4814,-1.4825,-1.4703,-1.4703,-1.4703,0,0,-1.4804,-1.4788,-1.4797,-1.4793,-1.4784,-1.4796,-1.4744,-1.4759,-1.4768,-1.4716,-1.4738,-1.4727,-1.4717,-1.475,-1.4764,-1.4743,-1.4826,-1.4795,-1.4802,-1.4802,-1.482,-1.4832,-1.4842,-1.4707,-1.4706,-1.4706,0,0,-1.4881,-1.4871,-1.4896,-1.4889,-1.4876,-1.4856,-1.4862,-1.4841,-1.4831,-1.4853,-1.4815,-1.4825,-1.4838,-1.4832,-1.483,-1.4907,-1.4877,-1.491,-1.496,-1.4981,-1.499,-1.4999,-1.5025,-1.5034,-1.4916,-1.4916,-1.4916,0,-1.4932,-1.4948,-1.4914,-1.4931,-1.493,-1.4884,-1.491,-1.4905,-1.4895,-1.4895,-1.4872,-1.4887,-1.4877,-1.4908,-1.4927,-1.4928,-1.4933,-1.4911,-1.4992,-1.5,-1.5007,-1.5031,-1.5041,-1.492,-1.4919,-1.4919,-1.4918,0,-1.501,-1.5022,-1.5044,-1.5034,-1.5037,-1.5059,-1.5029,-1.5035,-1.5012,-1.4995,-1.5018,-1.5005,-1.5005,-1.5012,-1.499,-1.504,-1.5027,-1.4999,-1.4956,-1.5023,-1.5045,-1.5054,-1.4925,-1.4924,-1.4923,-1.4922,0,0,-1.5128,-1.51,-1.5108,-1.5103,-1.5086,-1.5095,-1.5115,-1.5115,-1.5121,-1.5117,-1.5132,-1.5145,-1.5118,-1.5117,-1.5094,-1.5113,-1.5172,-1.5081,-1.508,-1.5097,-1.5226,-1.5246,-1.5257,-1.5153,-1.5155,-1.5156,-1.5226,0,-1.5199,-1.523,-1.5201,-1.5238,-1.5248,-1.5205,-1.5223,-1.5215,-1.52,-1.5207,-1.519,-1.5199,-1.5164,-1.5162,-1.5179,-1.5162,-1.5197,-1.5157,-1.5167,-1.5167,-1.5168,-1.5269,-1.529,-1.5356,-1.5235,-1.5236,-1.5237,0,-1.5286,-1.5284,-1.5322,-1.5303,-1.5306,-1.5322,-1.532,-1.5327,-1.5318,-1.5306,-1.5305,-1.5277,-1.5296,-1.5256,-1.5281,-1.5254,-1.5257,-1.525,-1.5251,-1.5249,-1.5205,-1.5267,-1.5377,-1.5386,-1.5251,-1.525,-1.5249,0,-1.5366,-1.5374,-1.5397,-1.5394,-1.5373,-1.5385,-1.5377,-1.5365,-1.5367,-1.5366,-1.5367,-1.5369,-1.5369,-1.5371,-1.5345,-1.5319,-1.5373,-1.5332,-1.5363,-1.5364,-1.5374,-1.5373,-1.5483,-1.538,-1.538,-1.538,-1.538,0,-1.5447,-1.5472,-1.5432,-1.5446,-1.5473,-1.544,-1.5467,-1.5455,-1.5445,-1.5456,-1.5421,-1.5432,-1.5398,-1.5406,-1.5386,-1.5409,-1.5411,-1.5401,-1.5395,-1.5402,-1.5403,-1.5402,-1.5396,-1.5383,-1.5382,-1.5382,-1.5381,0,-1.554,-1.5514,-1.5536,-1.5515,-1.551,-1.553,-1.5511,-1.5524,-1.5507,-1.5522,-1.5524,-1.5497,-1.5505,-1.5479,-1.5484,-1.547,-1.5504,-1.5492,-1.5506,-1.5502,-1.5534,-1.553,-1.5645,-1.5657,-1.5549,-1.555,-1.5551,0,-1.5592,-1.561,-1.5589,-1.5594,-1.5587,-1.5596,-1.5598,-1.5567,-1.557,-1.5561,-1.5575,-1.558,-1.5581,-1.5597,-1.5578,-1.5581,-1.5567,-1.5607,-1.5567,-1.5574,-1.5565,-1.5563,-1.5564,-1.5614,-1.5616,-1.5617,-1.5618,0,-1.5687,-1.5674,-1.5677,-1.5677,-1.568,-1.5678,-1.5674,-1.568,-1.5647,-1.5653,-1.566,-1.5662,-1.5666,-1.5671,-1.567,-1.5662,-1.5634,-1.5631,-1.5638,-1.5645,-1.5652,-1.5646,-1.5526,-1.5628,-1.5627,-1.5626,-1.5625,-1.5625,-1.5759,-1.5773,-1.576,-1.5766,-1.5759,-1.5757,-1.5767,-1.5751,-1.5756,-1.5756,-1.5739,-1.5749,-1.574,-1.5736,-1.5731,-1.5739,-1.5721,-1.5732,-1.5734,-1.5736,-1.5741,-1.5653,-1.574,-1.5739,-1.5739,-1.5739,-1.5739,0,-1.5851,-1.5841,-1.5846,-1.5841,-1.5846,-1.582,-1.5814,-1.5819,-1.5829,-1.5822,-1.5825,-1.5833,-1.5838,-1.5821,-1.5823,-1.5833,-1.5821,-1.5835,-1.5833,-1.5831,-1.5758,-1.5751,-1.5845,-1.5845,-1.5845,-1.5845,-1.5845,-1.5845,-1.5899,-1.5919,-1.5905,-1.5923,-1.5913,-1.5922,-1.5921,-1.5919,-1.5913,-1.5924,-1.5927,-1.5916,-1.5905,-1.5906,-1.591,-1.5905,-1.5906,-1.5925,-1.5915,-1.5847,-1.5836,-1.5826,-1.5819,-1.5926,-1.5926,-1.5987,-1.5987,-1.5988]},{"header":{"parameterUnit":"m.s-1","parameterCategory":1,"la1":30.2991,"la2":30.254,"lo1":-89.0895,"lo2":-89.0444,"dy":0.0017,"dx":0.0017,"nx":28,"ny":28,"refTime":"2026-02-07T03:00:00:Z","depth":0,"parameterNumber":3,"parameterNumberName":"V-component_of_WINDS"},"data":[0,0,0,0,0,0,0,0,0,0,0,0,0,0,0,0,0,0,0,0,0,0,0,0,0,0,0,0,0,0,0,0,0,0,0,0,0,0,0,0,0,0,0,0,0,0,0,0,0,0,0,0,0,0,0,0,0,0,1.2252,1.2252,0,1.2263,1.2263,1.2264,1.2354,1.2356,1.2359,1.2361,1.2369,1.2367,1.2365,0,0,0,0,0,0,0,0,0,0,0,0,0,1.2308,1.2307,1.2252,1.2252,1.2253,1.2263,1.2263,1.2264,1.2354,1.2357,1.2359,1.2362,1.237,1.2368,1.2365,0,0,0,0,0,0,0,0,0,0,0,0,0,1.2298,1.2306,1.2252,1.2299,1.2303,1.2263,1.2263,1.2264,1.2353,1.2357,1.236,1.2363,1.237,1.2368,1.2365,1.228,0,0,1.2356,1.2355,0,0,0,0,0,0,0,0,1.2298,1.2296,1.2292,1.2296,1.23,1.2311,1.2286,1.2269,1.2352,1.2334,1.2361,1.2365,1.2347,1.2346,1.2341,1.228,1.2281,1.2356,1.2354,1.2353,1.2352,0,0,0,0,0,0,0,1.2299,1.2296,1.2257,1.2292,1.2297,1.2319,1.2321,1.2284,1.2321,1.2336,1.2343,1.2343,1.235,1.2343,1.2342,1.2281,1.2356,1.2354,1.2352,1.2351,1.2155,1.2151,0,0,0,0,0,0,1.2294,1.2296,1.2256,1.2257,1.2308,1.2315,1.2318,1.2304,1.2322,1.2328,1.234,1.2347,1.2346,1.2345,1.2342,1.2246,1.2353,1.2351,1.2349,1.2158,1.2154,1.215,0,0,0,0,0,0,1.2294,1.2289,1.2256,1.2278,1.2276,1.2311,1.2295,1.2302,1.2296,1.2325,1.2332,1.2326,1.2349,1.2346,1.2296,1.2247,1.2349,1.2347,1.2162,1.2157,1.2152,1.2051,0,0,0,0,0,0,1.2296,1.2289,1.2257,1.2277,1.2274,1.2209,1.2292,1.23,1.2291,1.2301,1.2314,1.232,1.2351,1.2299,1.2293,1.2245,1.2345,1.2167,1.216,1.2154,1.2058,1.2043,1.2029,0,0,0,0,0,1.2297,1.2227,1.2255,1.2249,1.2235,1.2206,1.2204,1.2243,1.2287,1.2255,1.2275,1.2319,1.2254,1.2293,1.2287,1.2238,1.217,1.2162,1.2154,1.2065,1.2046,1.2029,0,0,0,0,0,0,1.2198,1.223,1.2261,1.2195,1.2197,1.2221,1.2182,1.2221,1.221,1.2219,1.2267,1.2269,1.2211,1.222,1.2263,1.2158,1.222,1.221,1.2154,1.2136,1.2122,1.2121,1.2342,0,0,0,0,0,1.2169,1.2143,1.2172,1.2111,1.2111,1.2146,1.2135,1.2165,1.2169,1.2169,1.2185,1.2186,1.2166,1.2152,1.2135,1.2061,1.2066,1.2024,1.2009,1.1997,1.1988,1.1951,1.1933,1.2124,1.2124,1.2124,0,0,1.2107,1.2122,1.2102,1.2091,1.2097,1.2069,1.2146,1.2113,1.2093,1.2164,1.2118,1.2129,1.2134,1.2072,1.2045,1.2077,1.1936,1.1987,1.1977,1.1974,1.1941,1.1923,1.1907,1.2119,1.212,1.212,0,0,1.1981,1.1989,1.194,1.1945,1.1952,1.1977,1.1965,1.1984,1.1995,1.195,1.2004,1.198,1.1944,1.1946,1.1942,1.1821,1.1862,1.1814,1.1736,1.17,1.1685,1.1672,1.163,1.1614,1.1805,1.1805,1.1805,0,1.1903,1.1864,1.1909,1.1874,1.1868,1.1934,1.1885,1.1887,1.1888,1.1882,1.1918,1.1877,1.1884,1.1825,1.1795,1.179,1.1778,1.1812,1.1684,1.1671,1.166,1.162,1.1604,1.1799,1.18,1.18,1.1801,0,1.1769,1.1741,1.1701,1.1703,1.1692,1.165,1.1689,1.1673,1.1705,1.1726,1.168,1.1693,1.168,1.1669,1.1698,1.1613,1.1633,1.1676,1.1739,1.1635,1.1598,1.1583,1.1791,1.1793,1.1794,1.1796,0,0,1.1578,1.1608,1.1592,1.1595,1.161,1.1589,1.1551,1.1541,1.1527,1.1526,1.1495,1.1465,1.1506,1.1501,1.1532,1.15,1.1405,1.1547,1.1548,1.1521,1.1314,1.1282,1.1264,1.1433,1.143,1.1428,1.1314,0,1.1457,1.1394,1.1435,1.1365,1.1341,1.1405,1.1372,1.1377,1.1396,1.1378,1.14,1.1378,1.1432,1.1431,1.1402,1.1423,1.1364,1.1432,1.1405,1.1403,1.1402,1.1244,1.121,1.1101,1.13,1.1298,1.1296,0,1.1308,1.1303,1.1231,1.1254,1.1245,1.1214,1.121,1.1192,1.12,1.1217,1.1213,1.1254,1.1218,1.1281,1.1233,1.1278,1.127,1.1278,1.1275,1.1274,1.1343,1.1239,1.1068,1.1051,1.1274,1.1275,1.1277,0,1.1177,1.1152,1.1107,1.1107,1.1132,1.1109,1.1118,1.1131,1.1123,1.1118,1.1114,1.1105,1.11,1.1092,1.1129,1.1171,1.1077,1.1142,1.1089,1.1088,1.1066,1.1067,1.0891,1.106,1.106,1.1061,1.1061,0,1.1038,1.0991,1.1049,1.1021,1.0971,1.102,1.0969,1.0985,1.0996,1.0972,1.1026,1.1003,1.1053,1.1035,1.1063,1.102,1.1017,1.103,1.1038,1.1025,1.1023,1.102,1.1028,1.1056,1.1057,1.1058,1.1059,0,1.0882,1.0919,1.0874,1.0903,1.0909,1.0871,1.0896,1.0871,1.0895,1.0865,1.086,1.0898,1.088,1.0916,1.0902,1.0921,1.0861,1.088,1.0858,1.0864,1.0809,1.0814,1.0625,1.0603,1.0786,1.0784,1.0783,0,1.0791,1.0758,1.0784,1.0773,1.078,1.076,1.0754,1.0801,1.0791,1.08,1.0774,1.0761,1.0753,1.0721,1.0747,1.0737,1.0757,1.0692,1.0756,1.0745,1.0757,1.0759,1.0756,1.0678,1.0676,1.0674,1.0672,0,1.0626,1.0647,1.0635,1.0631,1.0622,1.062,1.0622,1.061,1.066,1.0647,1.063,1.0624,1.0612,1.0598,1.0595,1.0604,1.0646,1.0653,1.064,1.0626,1.0615,1.0621,1.0822,1.0656,1.0658,1.0659,1.066,1.0661,1.05,1.0475,1.049,1.0476,1.0483,1.0485,1.0464,1.0487,1.0474,1.0469,1.0497,1.0474,1.0486,1.0486,1.0492,1.0475,1.0504,1.0485,1.0481,1.0475,1.0467,1.0618,1.0474,1.0475,1.0475,1.0475,1.0476,0,1.0339,1.0353,1.034,1.0343,1.0332,1.0375,1.0381,1.0369,1.0348,1.0356,1.0348,1.033,1.0318,1.0344,1.0336,1.0317,1.0337,1.0314,1.0315,1.0317,1.0441,1.0453,1.0298,1.0298,1.0298,1.0298,1.0298,1.0298,1.0253,1.0212,1.0235,1.0199,1.0213,1.0193,1.0192,1.0194,1.0201,1.0179,1.017,1.0188,1.0203,1.0198,1.0189,1.0197,1.0192,1.0162,1.0176,1.0291,1.0308,1.0325,1.0336,1.016,1.016,1.0055,1.0054,1.0053]}]]